Back to catalog

BREEZE-M R/B

AliveMEO
NORAD 42909·ROCKET BODY·🇷🇺 Russia

Launched Aug 16, 2017 from Baikonur Cosmodrome

Loading…

Next Passes (next 24 hours)

TLE

FreshSource: Space-Track

Epoch: Sep 13, 2026, 11:57 UTC

1 42909U 17046C   26256.49831626 -.00000168  00000-0  00000-0 0  9998
2 42909   8.9439  67.2473 0761534 163.5124 199.3211  0.90332501 29950

Track BREEZE-M R/B in real time with AllMySat

Download on the App Store